星链-34948 (STARLINK-34948)

导读

STARLINK-34948是美国SpaceX星链星座下属的一颗卫星,于2025年8月14日在美国发射升空。星链项目旨在构建全球卫星互联网星座,该卫星继承星链卫星技术特点,将为全球偏远地区、海上及航空移动终端提供低时延宽带互联网服务,进一步扩充了星链星座的在轨服务规模,推动全球互联网络覆盖完善。

Basic Information
目录编号:
65191
目录名称:
STARLINK-34948
国际标识:
2025-175T
轨道中心:
EARTH
卫星名称:
星链-34948
卫星全名:
星链-34948 (STARLINK-34948)
卫星状态:
在轨 (已飞行386 天)
发射日期:
2025-08-14 UTC
国别 :
美国 (US)
星等 :
--
Orbit Information
数据来源 国际轨道数据
星历时间: 2026-09-03T12:39:49+0800
1天前
查看轨道信息
半长轴: 6843.648km
偏心率: 0.0001696
轨道倾角: 97.284°
近地点辐角 94.998°
升交点赤经 115.463°
平近点角 265.145°
近地点: 464.35km
远地点: 466.672km
周期: 93.906分钟
每日圈数: 15.334561
Detailed Information
固有亮度:
5
最大亮度:
2.5
卫星平台:
Starlink V1.0
覆盖范围:
全球
运营商:
太空探索技术公司
运营商所在国:
美国
制造商(研发单位):
太空探索技术公司
制造商所在国:
美国
使用方式:
暂无
Satellite Introduction
Starlink 计划是 SpaceX 推出的全球卫星互联网项目,通过发射低轨道卫星,为全球尤其是偏远地区提供高速、低延迟的互联网服务。自 2019 年起,Starlink 已部署数千颗卫星,旨在缩小全球数字鸿沟,推动互联网普及。该项目还为军事、航空等行业提供通信支持,带来广泛经济效益。
2D Orbit Map
3D Orbit Map
Orbit Altitude Analysis Chart
Orbit Inclination Analysis Chart
Orbit Comprehensive Analysis Chart
View Comprehensive Chart
Conjunction Data List
Event ID Objects TCA Miss Dist (km) Collision Risk Probability Collision Risk Index (CRI) Action
CDM_260906-072701-957306-519121
2026-09-06T
07:27:51+0000
2.524 km
极远距离
1.75575E-6 低风险 0.4
CDM_260904-065101-957306-519125
2026-09-04T
06:51:48+0000
2.591 km
极远距离
1.678594E-6 低风险 0.39
CDM_260905-122904-857806-519121
2026-09-05T
12:29:27+0000
2.845 km
极远距离
1.292588E-6 低风险 0.37
CDM_260830-184005-298606-519121
2026-08-30T
18:40:23+0000
2.828 km
极远距离
1.234155E-6 低风险 0.37
CDM_260831-231306-519106-546721
2026-08-31T
23:13:37+0000
2.737 km
极远距离
1.0739E-6 低风险 0.36
CDM_260905-135006-295206-519121
2026-09-05T
13:50:08+0000
2.586 km
极远距离
9.583486E-7 极低风险 0.35